Weather in Saranskoye

Russia / Kaliningrad Oblast     54°49′51″N   21°14′23″E
temp.,
°C
wind,
m/s
gust,
m/s
humid.,
%
clouds,
%
prec.,
mm/h
press.,
hPa
HPBL,
m
12 may, wed
wed1223:00+16se616725 0.0 1013660
02:00+14se515719 0.0 1013493
05:00+12se514719 0.0 1012392
08:00+17se615725 0.0 1012711
11:00+22se713605 0.0 10121213
14:00+23se7115838 0.0 10121739
17:00+23se5963100 0.1 10101463
20:00+17ese512741 0.2 1010648
13 may, thu
thu1323:00+13ese411780 0.0 1010313
02:00+10ese38890 0.0 1009160
05:00+9ese24913 0.0 100863
08:00+14ene23675 0.0 1006329
11:00+17ene245899 0.0 1004852
14:00+17ne246398 0.0 10031356
17:00+14ne678043 0.8 1002898
20:00+10ne378416 0.8 1001562
14 may, fri
fri1423:00+9ne3690100 0.0 1001404
02:00+8nne118998 0.1 1000215
05:00+8sw119197 0.0 999125
08:00+10ssw238060 0.0 1000653
11:00+13sw3469100 0.1 10001116
14:00+13sw3568100 0.1 10021017
17:00+14wsw456834 0.1 10021105
20:00+10nw23924 0.1 100367
15 may, sat
sat1523:00+6wnw23987 0.0 100546
02:00+5w22978 0.0 100627
05:00+5wsw22987 0.0 100643
08:00+11wsw24805 0.0 1007411
11:00+15wsw246138 0.0 10081182
14:00+15w337099 0.3 1008861
17:00+15nw3273100 0.2 1008707
20:00+9nnw2289100 0.2 100841
16 may, sun
sun1623:00+7e1194100 0.0 100910
02:00+7se22959 0.0 100912
05:00+7ese239794 0.0 100848
08:00+14se3580100 0.0 1008356
11:00+18se456488 0.0 10081318
14:00+19sse466031 0.6 10071656
17:00+20ese4659100 0.3 10051340
20:00+14se31091100 1.6 1005274